• In Uzbekistan
  • List of Countries
  • For 7 days
  • Water Temperature
  • Satellite Maps
  • Weather Map
  • Weather Widgets
  • user-avatar
    Login

    Hourly Weather Bangarmau

    Today, 22 June, Friday

    Time Temperature Precipitation Wind Pressure Humidity
    00:00 +43°C° 0 mm 2 mps 735 mmHg 17%
    01:00 +43°C° 0 mm 3 mps 735 mmHg 17%
    02:00 +43°C° 0 mm 3 mps 735 mmHg 18%
    03:00 +42°C° 0 mm 3 mps 736 mmHg 19%
    04:00 +40°C° 0 mm 3 mps 736 mmHg 21%
    05:00 +40°C° 0 mm 3 mps 736 mmHg 22%
    06:00 +42°C° 0 mm 3 mps 736 mmHg 22%
    07:00 +43°C° 0 mm 3 mps 736 mmHg 21%
    08:00 +44°C° 0 mm 3 mps 737 mmHg 21%
    09:00 +45°C° 0 mm 3 mps 737 mmHg 20%
    10:00 +46°C° 0 mm 3 mps 737 mmHg 18%
    11:00 +47°C° 0 mm 3 mps 736 mmHg 17%
    12:00 +49°C° 0 mm 4 mps 736 mmHg 16%
    13:00 +49°C° 0 mm 4 mps 735 mmHg 16%
    14:00 +49°C° 0 mm 5 mps 735 mmHg 16%
    15:00 +49°C° 0 mm 4 mps 734 mmHg 16%
    16:00 +49°C° 0 mm 4 mps 734 mmHg 15%
    17:00 +48°C° 0 mm 3 mps 734 mmHg 15%
    18:00 +47°C° 0 mm 3 mps 734 mmHg 16%
    19:00 +46°C° 0 mm 3 mps 734 mmHg 17%
    20:00 +45°C° 0 mm 3 mps 734 mmHg 18%
    21:00 +43°C° 0 mm 2 mps 734 mmHg 19%
    22:00 +43°C° 0 mm 2 mps 734 mmHg 19%
    23:00 +42°C° 0 mm 2 mps 735 mmHg 20%

    Tomorrow, 23 June, Saturday

    Time Temperature Precipitation Wind Pressure Humidity
    00:00 +42°C° 0 mm 2 mps 734 mmHg 21%
    01:00 +41°C° 0 mm 2 mps 734 mmHg 21%
    02:00 +41°C° 0 mm 2 mps 734 mmHg 22%
    03:00 +41°C° 0 mm 2 mps 734 mmHg 23%
    04:00 +40°C° 0 mm 2 mps 734 mmHg 23%
    05:00 +40°C° 0 mm 2 mps 734 mmHg 24%
    06:00 +41°C° 0 mm 2 mps 735 mmHg 23%
    07:00 +42°C° 0 mm 2 mps 735 mmHg 22%
    08:00 +44°C° 0 mm 3 mps 736 mmHg 21%
    09:00 +45°C° 0 mm 3 mps 735 mmHg 19%
    10:00 +47°C° 0 mm 3 mps 735 mmHg 16%
    11:00 +49°C° 0 mm 2 mps 735 mmHg 14%
    12:00 +50°C° 0 mm 3 mps 735 mmHg 13%
    13:00 +51°C° 0 mm 3 mps 734 mmHg 12%
    14:00 +51°C° 0 mm 3 mps 733 mmHg 11%
    15:00 +51°C° 0 mm 3 mps 733 mmHg 11%
    16:00 +50°C° 0 mm 3 mps 732 mmHg 11%
    17:00 +50°C° 0 mm 3 mps 732 mmHg 12%
    18:00 +48°C° 0 mm 3 mps 732 mmHg 12%
    19:00 +47°C° 0 mm 3 mps 732 mmHg 13%
    20:00 +47°C° 0 mm 3 mps 732 mmHg 13%
    21:00 +46°C° 0 mm 3 mps 732 mmHg 14%
    22:00 +45°C° 0 mm 3 mps 732 mmHg 15%
    23:00 +45°C° 0 mm 3 mps 732 mmHg 15%

    Day after tomorrow, 24 June, Sunday

    Time Temperature Precipitation Wind Pressure Humidity
    00:00 +44°C° 0 mm 3 mps 732 mmHg 16%
    01:00 +43°C° 0 mm 3 mps 732 mmHg 17%
    02:00 +43°C° 0 mm 4 mps 732 mmHg 18%
    03:00 +42°C° 0 mm 4 mps 732 mmHg 20%
    04:00 +41°C° 0 mm 4 mps 733 mmHg 23%
    05:00 +41°C° 0 mm 4 mps 733 mmHg 26%
    06:00 +42°C° 0 mm 4 mps 733 mmHg 26%
    07:00 +43°C° 0 mm 4 mps 734 mmHg 26%
    08:00 +44°C° 0 mm 4 mps 734 mmHg 26%
    09:00 +47°C° 0 mm 4 mps 735 mmHg 23%
    10:00 +48°C° 0 mm 5 mps 735 mmHg 19%
    11:00 +50°C° 0 mm 5 mps 735 mmHg 16%
    12:00 +52°C° 0 mm 5 mps 734 mmHg 14%
    13:00 +52°C° 0 mm 6 mps 733 mmHg 13%
    14:00 +53°C° 0 mm 6 mps 732 mmHg 12%
    15:00 +52°C° 0 mm 6 mps 732 mmHg 13%
    16:00 +52°C° 0 mm 6 mps 732 mmHg 13%
    17:00 +51°C° 0 mm 6 mps 731 mmHg 14%
    18:00 +50°C° 0 mm 5 mps 732 mmHg 15%
    19:00 +49°C° 0 mm 4 mps 732 mmHg 16%
    20:00 +48°C° 0 mm 4 mps 732 mmHg 17%
    21:00 +47°C° 0 mm 4 mps 732 mmHg 18%
    22:00 +47°C° 0 mm 4 mps 732 mmHg 19%
    23:00 +45°C° 0 mm 4 mps 732 mmHg 20%

    25 June, Monday

    Time Temperature Precipitation Wind Pressure Humidity
    00:00 +44°C° 0 mm 4 mps 732 mmHg 21%
    01:00 +44°C° 0 mm 4 mps 732 mmHg 23%
    02:00 +43°C° 0 mm 4 mps 732 mmHg 24%
    03:00 +43°C° 0 mm 4 mps 732 mmHg 25%
    04:00 +42°C° 0 mm 4 mps 732 mmHg 26%
    05:00 +42°C° 0 mm 5 mps 733 mmHg 27%
    06:00 +42°C° 0 mm 5 mps 733 mmHg 27%
    07:00 +43°C° 0 mm 5 mps 734 mmHg 26%
    08:00 +45°C° 0 mm 6 mps 734 mmHg 25%
    09:00 +46°C° 0 mm 5 mps 734 mmHg 23%
    10:00 +48°C° 0 mm 5 mps 734 mmHg 21%
    11:00 +49°C° 0 mm 5 mps 734 mmHg 19%
    12:00 +49°C° 0 mm 5 mps 733 mmHg 18%
    13:00 +49°C° 0 mm 5 mps 733 mmHg 18%
    14:00 +49°C° 0 mm 5 mps 732 mmHg 17%
    15:00 +49°C° 0 mm 5 mps 732 mmHg 17%
    16:00 +50°C° 0 mm 5 mps 731 mmHg 16%
    17:00 +50°C° 0 mm 5 mps 731 mmHg 16%
    18:00 +49°C° 0 mm 4 mps 731 mmHg 17%
    19:00 +48°C° 0 mm 4 mps 731 mmHg 18%
    20:00 +46°C° 0 mm 3 mps 732 mmHg 19%
    21:00 +45°C° 0 mm 4 mps 732 mmHg 21%
    22:00 +46°C° 0 mm 5 mps 732 mmHg 23%
    23:00 +45°C° 0 mm 6 mps 732 mmHg 25%

    26 June, Tuesday

    Time Temperature Precipitation Wind Pressure Humidity
    00:00 +44°C° 0 mm 6 mps 732 mmHg 28%
    01:00 +42°C° 0 mm 6 mps 732 mmHg 31%
    02:00 +43°C° 0 mm 7 mps 732 mmHg 33%
    03:00 +41°C° 0 mm 7 mps 732 mmHg 35%
    04:00 +41°C° 0 mm 7 mps 732 mmHg 36%
    05:00 +41°C° 0 mm 7 mps 733 mmHg 38%
    06:00 +41°C° 0 mm 7 mps 733 mmHg 36%
    07:00 +43°C° 0 mm 8 mps 734 mmHg 34%
    08:00 +44°C° 0 mm 8 mps 735 mmHg 32%
    09:00 +45°C° 0 mm 8 mps 735 mmHg 29%
    10:00 +47°C° 0 mm 7 mps 735 mmHg 26%
    11:00 +49°C° 0 mm 7 mps 735 mmHg 23%
    12:00 +48°C° 0 mm 6 mps 734 mmHg 22%
    13:00 +48°C° 0 mm 6 mps 733 mmHg 22%
    14:00 +49°C° 0 mm 6 mps 732 mmHg 21%
    15:00 +49°C° 0 mm 5 mps 732 mmHg 21%
    16:00 +48°C° 0 mm 5 mps 732 mmHg 21%
    17:00 +48°C° 0 mm 4 mps 732 mmHg 21%
    18:00 +47°C° 0.6 mm 4 mps 732 mmHg 23%
    19:00 +45°C° 0.6 mm 4 mps 732 mmHg 24%
    20:00 +44°C° 0.6 mm 4 mps 733 mmHg 26%
    21:00 +44°C° 0 mm 4 mps 733 mmHg 28%
    22:00 +43°C° 0 mm 4 mps 733 mmHg 29%
    23:00 +42°C° 0 mm 4 mps 734 mmHg 31%

    27 June, Wednesday

    Time Temperature Precipitation Wind Pressure Humidity
    00:00 +42°C° 0.4 mm 3 mps 733 mmHg 35%
    01:00 +40°C° 0.4 mm 3 mps 733 mmHg 39%
    02:00 +39°C° 0.4 mm 3 mps 733 mmHg 43%
    03:00 +39°C° 0.3 mm 3 mps 734 mmHg 43%
    04:00 +38°C° 0.3 mm 4 mps 734 mmHg 43%
    05:00 +38°C° 0.3 mm 4 mps 734 mmHg 43%
    06:00 +38°C° 0.5 mm 4 mps 735 mmHg 43%
    07:00 +38°C° 0.5 mm 3 mps 735 mmHg 43%
    08:00 +39°C° 0.5 mm 3 mps 736 mmHg 42%
    09:00 +39°C° 0 mm 3 mps 736 mmHg 41%
    10:00 +40°C° 0 mm 3 mps 736 mmHg 40%
    11:00 +40°C° 0 mm 3 mps 736 mmHg 39%
    12:00 +42°C° 0.5 mm 3 mps 736 mmHg 39%
    13:00 +42°C° 0.5 mm 3 mps 735 mmHg 38%
    14:00 +42°C° 0.5 mm 4 mps 735 mmHg 37%
    15:00 +42°C° 0.9 mm 4 mps 735 mmHg 38%
    16:00 +41°C° 0.9 mm 4 mps 734 mmHg 39%
    17:00 +40°C° 0.9 mm 3 mps 734 mmHg 40%
    18:00 +39°C° 0.7 mm 3 mps 735 mmHg 44%
    19:00 +38°C° 0.7 mm 3 mps 735 mmHg 47%
    20:00 +37°C° 0.7 mm 3 mps 735 mmHg 51%
    21:00 +36°C° 0.2 mm 3 mps 736 mmHg 54%
    22:00 +36°C° 0.2 mm 3 mps 736 mmHg 56%
    23:00 +35°C° 0.2 mm 3 mps 736 mmHg 58%
    Show more